Hourly Data Report for March 28, 2012

BAGOTVILLE A
QUEBEC

48°20'00.000" N
71°00'00.000" W
159.10 m
7060400
71727
YBG

Download Data

Hourly Data (March 2012)
Hourly Data Report for March 28, 2012
TIME
LST
Temp Definition
°C
Dew Point Definition
°C
Rel Hum Definition
%
Precip. Amount Definition
mm

Wind Dir Definition
10's deg

Wind Spd Definition
km/h
Visibility Definition
km
Stn Press Definition
kPa
Hmdx Definition


Wind Chill Definition


Weather Definition


00:00 -4.2 -14.8 43   14 4 24.1 99.81   -6 Cloudy
01:00 -4.0 -15.5 40   9 4 24.1 99.79   -6 Cloudy
02:00 -4.2 -13.7 48   11 11 24.1 99.69   -9 Cloudy
03:00 -4.2 -13.7 48   9 7 24.1 99.62   -7 Cloudy
04:00 -4.1 -13.6 48   12 6 24.1 99.53   -7 Cloudy
05:00 -3.8 -12.1 52   10 15 16.1 99.39   -9 Snow Showers
06:00 -3.6 -13.2 47   11 9 16.1 99.36   -7 Snow Showers
07:00 -3.2 -8.3 68   10 24 40.2 99.29   -10 Snow Showers
08:00 -4.5 -9.4 69   10 24 16.1 99.20   -12 Snow Showers
09:00 -4.6 -7.7 79   10 30 1.2 99.09   -12 Snow
10:00 -4.7 -6.5 87   10 30 1.2 98.96   -13 Snow Showers
11:00 -4.0 -6.0 86   11 24 3.2 98.89   -11 Snow Grains
12:00 -3.8 -4.9 92   10 24 1.2 98.82   -11 Snow
13:00 -3.8 -4.9 92   10 26 1.2 98.74   -11 Snow
14:00 -3.5 -5.4 87   9 32 2.4 98.65   -11 Snow
15:00 -3.4 -5.9 83   9 30 16.1 98.61   -11 Snow Showers
16:00 -3.5 -5.7 85   10 28 12.9 98.58   -11 Snow Showers
17:00 -3.6 -6.5 80   10 28 12.9 98.60   -11 Snow Showers
18:00 -4.0 -6.0 86   10 26 3.2 98.66   -11 Snow Showers
19:00 -3.4 -6.9 77   9 26 0.8 98.74   -10 Moderate Snow
20:00 -4.2 -5.6 90   10 20 2.4 98.81   -11 Snow
21:00 -3.9 -6.2 84   10 17 9.7 98.80   -10 Snow
22:00 -3.6 -6.5 80   9 20 16.1 98.83   -10 Snow
23:00 -3.6 -6.5 80   12 15 24.1 98.77   -9 Cloudy

Notes on Data Quality.

Legend

  • E = Estimated
  • M = Missing
  • NA = Not Available*
  • [empty] = Indicates an unobserved value
Date modified: